WA3YML Weather Reports


time (UTC)temp
C
wind
direction
speed
KPH
gust
KPH
rain 1hr
cm
rain 24hr
cm
rain mn
cm
humidity
%
barometer
mb
20260506211503 15 247 4.8 14.5 0.00 1.55 1.55 97 1005.0
20260506210004 15 278 4.8 22.5 0.00 1.55 1.55 98 1005.1
20260506203004 14 267 3.2 11.3 0.00 1.55 1.55 98 1004.9
20260506201503 14 261 3.2 12.9 0.00 1.55 1.55 98 1004.9
20260506200004 14 210 3.2 9.7 0.00 1.55 1.55 99 1005.0
20260506194504 14 226 3.2 11.3 0.03 1.55 1.55 99 1005.1
20260506193004 14 189 6.4 16.1 0.03 1.55 1.55 99 1005.3
20260506190004 13 189 1.6 11.3 0.08 1.55 1.55 99 1005.4
20260506183005 13 187 3.2 14.5 0.15 1.52 1.52 99 1005.5
20260506181504 13 208 3.2 11.3 0.20 1.50 1.50 98 1005.6
20260506180005 13 248 4.8 19.3 0.23 1.47 1.47 99 1005.7
20260506174504 13 197 4.8 19.3 0.28 1.45 1.45 98 1005.7
20260506173004 13 181 3.2 9.7 0.23 1.37 1.37 98 1005.8
20260506170004 13 261 4.8 20.9 0.18 1.24 1.24 98 1005.6
20260506164504 13 243 8.0 19.3 0.15 1.17 1.17 98 1005.6
20260506163004 13 176 4.8 19.3 0.25 1.14 1.14 98 1005.6
20260506161504 13 174 6.4 14.5 0.41 1.12 1.12 98 1005.7
20260506160004 13 187 4.8 16.1 0.41 1.07 1.07 98 1005.8
20260506154504 13 192 3.2 22.5 0.41 1.02 1.02 97 1005.9
20260506151503 13 203 4.8 20.9 0.23 0.71 0.71 97 1006.1
20260506150005 13 231 3.2 22.5 0.23 0.66 0.66 97 1005.9
20260506144504 13 189 4.8 25.7 0.25 0.61 0.61 97 1005.8
20260506143004 13 183 8.0 20.9 0.28 0.56 0.56 97 1005.9
20260506141504 13 170 8.0 14.5 0.30 0.48 0.48 97 1006.0
20260506140005 13 182 4.8 16.1 0.33 0.43 0.43 97 1006.4
20260506131504 13 191 3.2 12.9 0.18 0.18 0.18 95 1006.8
20260506130005 13 196 3.2 19.3 0.10 0.10 0.10 94 1007.0
20260506124504 14 179 6.4 16.1 0.05 0.05 0.05 93 1006.7
20260506123004 14 204 8.0 16.1 0.00 0.00 0.00 92 1006.7
20260506121504 14 196 3.2 14.5 0.00 0.00 0.00 90 1006.6
20260506120004 15 155 4.8 16.1 0.00 0.00 0.00 88 1006.6
20260506114504 15 169 4.8 22.5 0.00 0.00 0.00 87 1006.6
20260506113004 15 155 6.4 19.3 0.00 0.00 0.00 84 1006.7
20260506111504 15 184 8.0 19.3 0.00 0.00 0.00 81 1006.4
20260506110004 15 171 4.8 20.9 0.00 0.00 0.00 79 1006.4
20260506104504 15 185 4.8 20.9 0.00 0.00 0.00 77 1006.2
20260506103004 15 175 4.8 19.3 0.00 0.00 0.00 77 1005.9
20260506101504 15 173 3.2 19.3 0.00 0.00 0.00 76 1006.1
20260506100004 15 215 6.4 14.5 0.00 0.00 0.00 75 1006.2
20260506094503 15 174 3.2 12.9 0.00 0.00 0.00 75 1006.5
20260506091504 15 172 1.6 9.7 0.00 0.00 0.00 72 1006.5
20260506090004 15 186 4.8 11.3 0.00 0.00 0.00 71 1006.6
20260506083005 16 254 0.0 8.0 0.00 0.00 0.00 69 1006.7
20260506081504 16 170 3.2 11.3 0.00 0.00 0.00 68 1006.6
20260506073004 16 186 6.4 16.1 0.00 0.00 0.00 66 1006.9
20260506071504 16 146 3.2 11.3 0.00 0.00 0.00 66 1007.1
20260506061504 16 230 4.8 11.3 0.00 0.00 0.00 65 1007.5
20260506044503 14 186 1.6 4.8 0.00 0.00 0.00 68 1008.0
20260506043004 15 186 1.6 4.8 0.00 0.00 0.00 66 1008.1
20260506041504 15 187 1.6 4.8 0.00 0.00 0.00 64 1008.1
20260506040004 16 188 1.6 8.0 0.00 0.00 0.00 63 1008.2
20260506034503 16 174 1.6 4.8 0.00 0.00 0.00 61 1008.2
20260506033005 17 212 3.2 9.7 0.00 0.00 0.00 60 1008.2
20260506031504 17 185 1.6 9.7 0.00 0.00 0.00 58 1008.1
20260506024504 18 183 1.6 9.7 0.00 0.00 0.00 57 1008.2
20260506021503 19 204 3.2 11.3 0.00 0.00 0.00 56 1008.2
20260506020003 19 207 3.2 19.3 0.00 0.00 0.00 55 1008.1
20260506014505 20 196 8.0 16.1 0.00 0.00 0.00 54 1008.1
20260506013004 20 222 4.8 16.1 0.00 0.00 0.00 53 1008.1
20260506011504 20 212 3.2 19.3 0.00 0.00 0.00 52 1007.8
20260506010004 21 195 3.2 19.3 0.00 0.00 0.00 52 1007.7
20260506004505 21 185 6.4 19.3 0.00 0.00 0.00 51 1007.5
20260506003004 21 221 6.4 19.3 0.00 0.00 0.00 49 1007.4
20260506001503 21 179 1.6 14.5 0.00 0.00 0.00 48 1007.2
20260506000004 21 194 6.4 25.7 0.00 0.00 0.00 47 1007.1
20260505234504 21 194 6.4 24.1 0.00 0.00 0.00 47 1007.1
20260505233004 21 195 4.8 29.0 0.00 0.00 0.00 47 1006.9
20260505231504 21 207 4.8 19.3 0.00 0.00 0.00 48 1006.9
20260505230003 22 218 4.8 22.5 0.00 0.00 0.00 48 1006.9
20260505224504 22 199 8.0 25.7 0.00 0.00 0.00 48 1006.8
20260505223004 22 205 3.2 19.3 0.00 0.00 0.00 48 1006.7
20260505221504 22 245 6.4 14.5 0.00 0.00 0.00 48 1006.7
20260505220003 22 269 6.4 24.1 0.00 0.00 0.00 49 1006.7
20260505214504 22 250 4.8 19.3 0.00 0.00 0.00 48 1006.6
20260505213003 23 229 9.7 22.5 0.00 0.00 0.00 45 1006.5